STARLINK-32322, 61720

Orbit data source: Space-Track

STARLINK-32322, 61720 is a payload satellite owned by SpaceX/Seattle (US) in LEO that was launched on Wed, 30 Oct 2024 UTC via an FALCON 9 launch vehicle from the Air Force Eastern Test Range (AFETR). Payload-class satellites include a variety of spacecraft equipped with specific instruments for various scientific and technological missions. These include communications satellites like Starlink; space stations such as the ISS; scientific satellites like the Hubble; Earth observation satellites from companies like Planet Labs, Umbra, and HawkEye 360; GPS; miniature CubeSats for education and research; and military/defense satellites.

Loading next visibility...
Identifier
61720, 2024-196P
Orbit
LEO
Country
Flag of USUS
Related business
Manufacturer
SpaceX/Seattle
Mission
Operational Commercial Communications
Bus & Motor
STARLINK V2M, Unknown motor
Mass
730 kg wet, ~700 kg dry
Launch date (UTC)
2024-10-30 (2 years ago)
Launch vehicle
FALCON 9
Launch site
Air Force Eastern Test Range (AFETR)
Object type
Payload
Rocket body
Debris
Shape & HBR
Box + 2 Pan, 17.7 m
Radar Cross Section
33.884 m², Large (>1 m²)

Expand to show TLE details & history
Last TLE update: 16 hours ago

TLE from 16 hours ago
0 STARLINK-32322
1 61720U 24196P   26171.20091252 -.00000258  00000-0  34916-5 0  9990
2 61720  53.1601 345.0339 0001275 104.2751 255.8393 15.34389903 92850
Epoch: 2026-06-20T04:49Z
TLE epoch observation values (Epoch: 2026-06-20T04:49:18.841Z)
Latitude
-0.00005°
Longitude
4.28642°
Altitude
463.848 km
Speed
7.636 km/s
True Right ascension
23h 00m 08s
True Declination
0° 00' 00"
Sunlit
Object was in daylight at epoch
Visualization orbit readout
Latitude
Unknown
Longitude
Unknown
Altitude
Unknown
Speed
Unknown
Apparent Right ascension
Unknown
Apparent Declination
Unknown
Sunlit
N/A
Visualization observer readout
Local Sidereal Time
07:22:58
Azimuth
Unknown
Elevation
Unknown
Doppler factor
Unknown
Orbital elements
Apogee altitude
463.862 km
Perigee altitude
462.118 km
Semi-major axis
6,841.127 km
Eccentricity
0.00013
Inclination
53.1601°
RAAN
345.0339°
Arg. of periapsis
104.2751°
True anomaly
255.82513°
Mean anomaly
255.8393°
Eccentric anomaly
255.83222°
Mean motion
3.83576 °/min
Orbital period
93.85 mins
BSTAR
0.0000034916
Loading maneuver chart data...
Computing Atmospheric mass density...
Loading historical data...
Loading historical data...
Loading historical data...
Loading historical data...
Loading historical data...
Loading historical data...
Loading historical data...

Documentation

Showing up to 5 results
|